contact: severine.martini@mio.osupytheas.fr, dominique.lefevre@mio.osupytheas.fr
Project:EMSO Ligure-ouest http://www.emso-fr.org/EMSO-France
Sensor Microcat Sea-Bird SBE37 SMP,  Serial 57510 
DOI : "https://doi.org/10.17882/97948" 
Title:EMSO Ligure Ouest : Data Bathybot capteur Microcat - deploiement 2023-04-28
Datetime,Profondeur,Latitude,Longitude,Temperature,Conductivite,Pression,Salinite
time,m,degree_north,degree_east,degree_C,S/m,db,PSU 
2024-01-23T06:48:49,2420,42.8014,5.9826,13.2987,4.59910,2453.657,38.4863
2024-01-23T06:51:49,2420,42.8014,5.9826,13.2986,4.59910,2453.582,38.4863
2024-01-23T06:54:49,2420,42.8014,5.9826,13.2987,4.59913,2453.582,38.4866
2024-01-23T06:57:49,2420,42.8014,5.9826,13.2988,4.59911,2453.544,38.4863
2024-01-23T07:00:49,2420,42.8014,5.9826,13.2987,4.59909,2453.567,38.4862
2024-01-23T07:03:49,2420,42.8014,5.9826,13.2985,4.59909,2453.559,38.4865
2024-01-23T07:06:49,2420,42.8014,5.9826,13.2988,4.59910,2453.544,38.4862
2024-01-23T07:09:49,2420,42.8014,5.9826,13.2987,4.59910,2453.596,38.4863
2024-01-23T07:12:49,2420,42.8014,5.9826,13.2988,4.59921,2453.559,38.4873
2024-01-23T07:15:49,2420,42.8014,5.9826,13.2988,4.59910,2453.559,38.4862
2024-01-23T07:18:50,2420,42.8014,5.9826,13.2991,4.59910,2453.582,38.4858
2024-01-23T07:21:49,2420,42.8014,5.9826,13.2988,4.59909,2453.582,38.4861
2024-01-23T07:24:49,2420,42.8014,5.9826,13.2993,4.59909,2453.559,38.4856
2024-01-23T07:27:49,2420,42.8014,5.9826,13.2989,4.59910,2453.604,38.4861
2024-01-23T07:30:49,2420,42.8014,5.9826,13.2987,4.59911,2453.582,38.4864
2024-01-23T07:33:49,2420,42.8014,5.9826,13.2987,4.59911,2453.582,38.4864
2024-01-23T07:36:49,2420,42.8014,5.9826,13.2988,4.59911,2453.604,38.4863
2024-01-23T07:39:49,2420,42.8014,5.9826,13.2988,4.59918,2453.582,38.4869
2024-01-23T07:42:49,2420,42.8014,5.9826,13.2989,4.59915,2453.567,38.4866
2024-01-23T07:45:49,2420,42.8014,5.9826,13.2991,4.59911,2453.582,38.4861
2024-01-23T07:48:49,2420,42.8014,5.9826,13.2985,4.59916,2453.604,38.4871
2024-01-23T07:51:49,2420,42.8014,5.9826,13.2986,4.59914,2453.604,38.4867
2024-01-23T07:54:49,2420,42.8014,5.9826,13.2988,4.59917,2453.582,38.4869
2024-01-23T07:57:49,2420,42.8014,5.9826,13.2988,4.59912,2453.604,38.4864
2024-01-23T08:00:49,2420,42.8014,5.9826,13.2989,4.59918,2453.582,38.4868
2024-01-23T08:03:49,2420,42.8014,5.9826,13.2986,4.59912,2453.649,38.4866
2024-01-23T08:06:49,2420,42.8014,5.9826,13.2989,4.59912,2453.657,38.4863
2024-01-23T08:09:49,2420,42.8014,5.9826,13.2988,4.59911,2453.687,38.4862
2024-01-23T08:12:49,2420,42.8014,5.9826,13.2986,4.59911,2453.672,38.4865
2024-01-23T08:15:49,2420,42.8014,5.9826,13.2984,4.59911,2453.664,38.4867
2024-01-23T08:18:49,2420,42.8014,5.9826,13.2990,4.59911,2453.649,38.4861
2024-01-23T08:21:49,2420,42.8014,5.9826,13.2988,4.59911,2453.649,38.4863
2024-01-23T08:24:49,2420,42.8014,5.9826,13.2991,4.59911,2453.649,38.4860
2024-01-23T08:27:49,2420,42.8014,5.9826,13.2987,4.59911,2453.672,38.4864
2024-01-23T08:30:49,2420,42.8014,5.9826,13.2989,4.59911,2453.627,38.4862
2024-01-23T08:33:49,2420,42.8014,5.9826,13.2993,4.59913,2453.649,38.4859
2024-01-23T08:36:49,2420,42.8014,5.9826,13.2992,4.59911,2453.627,38.4859
2024-01-23T08:39:49,2420,42.8014,5.9826,13.2992,4.59912,2453.649,38.4860
2024-01-23T08:42:49,2420,42.8014,5.9826,13.2989,4.59911,2453.627,38.4862
2024-01-23T08:45:49,2420,42.8014,5.9826,13.2993,4.59912,2453.687,38.4858
2024-01-23T08:48:49,2420,42.8014,5.9826,13.2989,4.59911,2453.649,38.4861
2024-01-23T08:51:49,2420,42.8014,5.9826,13.2988,4.59911,2453.635,38.4863
2024-01-23T08:54:49,2420,42.8014,5.9826,13.2991,4.59911,2453.672,38.4860
2024-01-23T08:57:49,2420,42.8014,5.9826,13.2991,4.59911,2453.680,38.4860
2024-01-23T09:00:49,2420,42.8014,5.9826,13.2988,4.59911,2453.672,38.4863
2024-01-23T09:03:49,2420,42.8014,5.9826,13.2988,4.59911,2453.672,38.4863
2024-01-23T09:06:49,2420,42.8014,5.9826,13.2991,4.59911,2453.672,38.4860
2024-01-23T09:09:49,2420,42.8014,5.9826,13.2991,4.59911,2453.635,38.4859
2024-01-23T09:12:49,2420,42.8014,5.9826,13.2991,4.59911,2453.649,38.4860
2024-01-23T09:15:49,2420,42.8014,5.9826,13.2986,4.59910,2453.672,38.4864
2024-01-23T09:18:49,2420,42.8014,5.9826,13.2985,4.59910,2453.627,38.4865
2024-01-23T09:21:49,2420,42.8014,5.9826,13.2986,4.59910,2453.635,38.4863
2024-01-23T09:24:49,2420,42.8014,5.9826,13.2990,4.59911,2453.657,38.4860
2024-01-23T09:27:49,2420,42.8014,5.9826,13.2986,4.59910,2453.672,38.4863
2024-01-23T09:30:49,2420,42.8014,5.9826,13.2986,4.59910,2453.649,38.4864
2024-01-23T09:33:49,2420,42.8014,5.9826,13.2987,4.59910,2453.672,38.4862
2024-01-23T09:36:49,2420,42.8014,5.9826,13.2988,4.59910,2453.672,38.4861
2024-01-23T09:39:49,2420,42.8014,5.9826,13.2985,4.59910,2453.649,38.4865
2024-01-23T09:42:49,2420,42.8014,5.9826,13.2987,4.59909,2453.672,38.4862
2024-01-23T09:45:49,2420,42.8014,5.9826,13.2989,4.59909,2453.627,38.4860
2024-01-23T09:48:49,2420,42.8014,5.9826,13.2986,4.59909,2453.672,38.4863
2024-01-23T09:51:49,2420,42.8014,5.9826,13.2988,4.59909,2453.649,38.4861
2024-01-23T09:54:49,2420,42.8014,5.9826,13.2988,4.59909,2453.657,38.4861
2024-01-23T09:57:49,2420,42.8014,5.9826,13.2988,4.59909,2453.664,38.4861
2024-01-23T10:00:49,2420,42.8014,5.9826,13.2989,4.59909,2453.649,38.4860
2024-01-23T10:03:49,2420,42.8014,5.9826,13.2989,4.59909,2453.657,38.4860
2024-01-23T10:06:49,2420,42.8014,5.9826,13.2986,4.59909,2453.672,38.4862
2024-01-23T10:09:49,2420,42.8014,5.9826,13.2989,4.59909,2453.672,38.4860
2024-01-23T10:12:49,2420,42.8014,5.9826,13.2986,4.59909,2453.672,38.4863
2024-01-23T10:15:49,2420,42.8014,5.9826,13.2987,4.59909,2453.627,38.4862
2024-01-23T10:18:49,2420,42.8014,5.9826,13.2988,4.59909,2453.657,38.4861
2024-01-23T10:21:49,2420,42.8014,5.9826,13.2989,4.59909,2453.627,38.4860
2024-01-23T10:24:49,2420,42.8014,5.9826,13.2990,4.59909,2453.649,38.4859
2024-01-23T10:27:49,2420,42.8014,5.9826,13.2990,4.59909,2453.649,38.4859
2024-01-23T10:30:49,2420,42.8014,5.9826,13.2990,4.59909,2453.627,38.4859
2024-01-23T10:33:49,2420,42.8014,5.9826,13.2986,4.59909,2453.649,38.4862
2024-01-23T10:36:49,2420,42.8014,5.9826,13.2988,4.59909,2453.649,38.4860
2024-01-23T10:39:49,2420,42.8014,5.9826,13.2985,4.59909,2453.649,38.4864
2024-01-23T10:42:49,2420,42.8014,5.9826,13.2988,4.59908,2453.612,38.4860
2024-01-23T10:45:49,2420,42.8014,5.9826,13.2986,4.59908,2453.627,38.4861
2024-01-23T10:48:49,2420,42.8014,5.9826,13.2990,4.59909,2453.635,38.4858
2024-01-23T10:51:49,2420,42.8014,5.9826,13.2986,4.59908,2453.627,38.4862
2024-01-23T10:54:49,2420,42.8014,5.9826,13.2984,4.59908,2453.604,38.4864
2024-01-23T10:57:49,2420,42.8014,5.9826,13.2987,4.59908,2453.604,38.4861
2024-01-23T11:00:49,2420,42.8014,5.9826,13.2989,4.59908,2453.604,38.4858
2024-01-23T11:03:49,2420,42.8014,5.9826,13.2988,4.59908,2453.604,38.4861
2024-01-23T11:06:49,2420,42.8014,5.9826,13.2985,4.59908,2453.604,38.4863
2024-01-23T11:09:49,2420,42.8014,5.9826,13.2985,4.59908,2453.604,38.4864
2024-01-23T11:12:49,2420,42.8014,5.9826,13.2986,4.59908,2453.627,38.4862
2024-01-23T11:15:49,2420,42.8014,5.9826,13.2986,4.59908,2453.604,38.4862
2024-01-23T11:18:49,2420,42.8014,5.9826,13.2986,4.59908,2453.627,38.4862
2024-01-23T11:21:49,2420,42.8014,5.9826,13.2991,4.59908,2453.612,38.4858
2024-01-23T11:24:49,2420,42.8014,5.9826,13.2985,4.59908,2453.559,38.4864
2024-01-23T11:27:49,2420,42.8014,5.9826,13.2985,4.59908,2453.604,38.4863
2024-01-23T11:30:49,2420,42.8014,5.9826,13.2986,4.59908,2453.627,38.4862
2024-01-23T11:33:49,2420,42.8014,5.9826,13.2987,4.59908,2453.582,38.4861
2024-01-23T11:36:49,2420,42.8014,5.9826,13.2985,4.59908,2453.604,38.4864
2024-01-23T11:39:49,2420,42.8014,5.9826,13.2984,4.59908,2453.604,38.4864
2024-01-23T11:42:49,2420,42.8014,5.9826,13.2987,4.59908,2453.604,38.4861
2024-01-23T11:45:49,2420,42.8014,5.9826,13.2987,4.59908,2453.582,38.4861
2024-01-23T11:48:49,2420,42.8014,5.9826,13.2991,4.59908,2453.582,38.4858
2024-01-23T11:51:49,2420,42.8014,5.9826,13.2987,4.59908,2453.582,38.4861
2024-01-23T11:54:49,2420,42.8014,5.9826,13.2985,4.59908,2453.604,38.4864
2024-01-23T11:57:49,2420,42.8014,5.9826,13.2987,4.59908,2453.582,38.4861
2024-01-23T12:00:49,2420,42.8014,5.9826,13.2988,4.59908,2453.596,38.4861
2024-01-23T12:03:49,2420,42.8014,5.9826,13.2987,4.59908,2453.604,38.4861
2024-01-23T12:06:49,2420,42.8014,5.9826,13.2985,4.59908,2453.582,38.4863
2024-01-23T12:09:49,2420,42.8014,5.9826,13.2988,4.59908,2453.582,38.4860
2024-01-23T12:12:49,2420,42.8014,5.9826,13.2988,4.59908,2453.590,38.4860
2024-01-23T12:15:49,2420,42.8014,5.9826,13.2990,4.59908,2453.559,38.4858
2024-01-23T12:18:49,2420,42.8014,5.9826,13.2986,4.59908,2453.537,38.4863
2024-01-23T12:21:49,2420,42.8014,5.9826,13.2988,4.59908,2453.567,38.4860
2024-01-23T12:24:49,2420,42.8014,5.9826,13.2984,4.59908,2453.582,38.4864
2024-01-23T12:27:49,2420,42.8014,5.9826,13.2988,4.59908,2453.582,38.4860
2024-01-23T12:30:49,2420,42.8014,5.9826,13.2987,4.59908,2453.559,38.4861
2024-01-23T12:33:49,2420,42.8014,5.9826,13.2988,4.59908,2453.582,38.4860
2024-01-23T12:36:49,2420,42.8014,5.9826,13.2987,4.59908,2453.537,38.4861
2024-01-23T12:39:49,2420,42.8014,5.9826,13.2984,4.59908,2453.582,38.4864
2024-01-23T12:42:49,2420,42.8014,5.9826,13.2985,4.59908,2453.537,38.4863
2024-01-23T12:45:49,2420,42.8014,5.9826,13.2985,4.59908,2453.537,38.4863
2024-01-23T12:48:49,2420,42.8014,5.9826,13.2987,4.59908,2453.559,38.4861
2024-01-23T12:51:49,2420,42.8014,5.9826,13.2986,4.59908,2453.559,38.4861
2024-01-23T12:54:49,2420,42.8014,5.9826,13.2986,4.59908,2453.559,38.4863
2024-01-23T12:57:49,2420,42.8014,5.9826,13.2985,4.59908,2453.590,38.4864
2024-01-23T13:00:49,2420,42.8014,5.9826,13.2987,4.59908,2453.544,38.4862
2024-01-23T13:03:49,2420,42.8014,5.9826,13.2985,4.59908,2453.537,38.4864
2024-01-23T13:06:49,2420,42.8014,5.9826,13.2986,4.59908,2453.582,38.4863
2024-01-23T13:09:49,2420,42.8014,5.9826,13.2989,4.59908,2453.559,38.4859
2024-01-23T13:12:49,2420,42.8014,5.9826,13.2988,4.59908,2453.559,38.4861
2024-01-23T13:15:49,2420,42.8014,5.9826,13.2985,4.59908,2453.559,38.4864
2024-01-23T13:18:49,2420,42.8014,5.9826,13.2984,4.59908,2453.544,38.4865
2024-01-23T13:21:49,2420,42.8014,5.9826,13.2987,4.59908,2453.544,38.4861
2024-01-23T13:24:49,2420,42.8014,5.9826,13.2985,4.59908,2453.559,38.4864
2024-01-23T13:27:49,2420,42.8014,5.9826,13.2986,4.59908,2453.537,38.4862
2024-01-23T13:30:49,2420,42.8014,5.9826,13.2983,4.59908,2453.596,38.4865
2024-01-23T13:33:49,2420,42.8014,5.9826,13.2984,4.59908,2453.582,38.4864
2024-01-23T13:36:49,2420,42.8014,5.9826,13.2985,4.59907,2453.574,38.4863
2024-01-23T13:39:49,2420,42.8014,5.9826,13.2988,4.59907,2453.559,38.4859
2024-01-23T13:42:49,2420,42.8014,5.9826,13.2988,4.59908,2453.537,38.4861
2024-01-23T13:45:49,2420,42.8014,5.9826,13.2986,4.59908,2453.559,38.4861
2024-01-23T13:48:49,2420,42.8014,5.9826,13.2985,4.59908,2453.537,38.4863
2024-01-23T13:51:49,2420,42.8014,5.9826,13.2986,4.59907,2453.537,38.4861
2024-01-23T13:54:49,2420,42.8014,5.9826,13.2987,4.59908,2453.537,38.4861
2024-01-23T13:57:49,2420,42.8014,5.9826,13.2988,4.59908,2453.582,38.4861
2024-01-23T14:00:49,2420,42.8014,5.9826,13.2991,4.59908,2453.582,38.4857
2024-01-23T14:03:49,2420,42.8014,5.9826,13.2989,4.59908,2453.559,38.4859
2024-01-23T14:06:49,2420,42.8014,5.9826,13.2988,4.59908,2453.559,38.4860
2024-01-23T14:09:49,2420,42.8014,5.9826,13.2987,4.59908,2453.582,38.4861
2024-01-23T14:12:49,2420,42.8014,5.9826,13.2985,4.59908,2453.582,38.4863
2024-01-23T14:15:49,2420,42.8014,5.9826,13.2990,4.59908,2453.582,38.4858
2024-01-23T14:18:49,2420,42.8014,5.9826,13.2984,4.59908,2453.559,38.4864
2024-01-23T14:21:49,2420,42.8014,5.9826,13.2985,4.59908,2453.514,38.4863
2024-01-23T14:24:49,2420,42.8014,5.9826,13.2985,4.59908,2453.559,38.4863
2024-01-23T14:27:49,2420,42.8014,5.9826,13.2984,4.59907,2453.604,38.4863
2024-01-23T14:30:49,2420,42.8014,5.9826,13.2988,4.59908,2453.544,38.4860
2024-01-23T14:33:49,2420,42.8014,5.9826,13.2988,4.59908,2453.596,38.4860
2024-01-23T14:36:49,2420,42.8014,5.9826,13.2987,4.59908,2453.582,38.4861
2024-01-23T14:39:49,2420,42.8014,5.9826,13.2987,4.59907,2453.582,38.4860
2024-01-23T14:42:49,2420,42.8014,5.9826,13.2984,4.59907,2453.604,38.4863
2024-01-23T14:45:49,2420,42.8014,5.9826,13.2986,4.59907,2453.567,38.4861
2024-01-23T14:48:49,2420,42.8014,5.9826,13.2983,4.59907,2453.559,38.4864
2024-01-23T14:51:49,2420,42.8014,5.9826,13.2988,4.59907,2453.537,38.4859
2024-01-23T14:54:49,2420,42.8014,5.9826,13.2983,4.59908,2453.604,38.4865
2024-01-23T14:57:50,2420,42.8014,5.9826,13.2986,4.59907,2453.582,38.4861
2024-01-23T15:00:49,2420,42.8014,5.9826,13.2986,4.59907,2453.582,38.4861
2024-01-23T15:03:49,2420,42.8014,5.9826,13.2988,4.59907,2453.604,38.4859
2024-01-23T15:06:49,2420,42.8014,5.9826,13.2985,4.59907,2453.582,38.4863
2024-01-23T15:09:49,2420,42.8014,5.9826,13.2986,4.59908,2453.559,38.4861
2024-01-23T15:12:49,2420,42.8014,5.9826,13.2985,4.59908,2453.604,38.4863
2024-01-23T15:15:49,2420,42.8014,5.9826,13.2981,4.59907,2453.559,38.4866
2024-01-23T15:18:49,2420,42.8014,5.9826,13.2984,4.59907,2453.582,38.4863
2024-01-23T15:21:49,2420,42.8014,5.9826,13.2985,4.59907,2453.590,38.4862
2024-01-23T15:24:49,2420,42.8014,5.9826,13.2985,4.59907,2453.582,38.4862
2024-01-23T15:27:49,2420,42.8014,5.9826,13.2984,4.59907,2453.627,38.4863
2024-01-23T15:30:49,2420,42.8014,5.9826,13.2986,4.59907,2453.604,38.4861
2024-01-23T15:33:49,2420,42.8014,5.9826,13.2985,4.59908,2453.604,38.4863
2024-01-23T15:36:49,2420,42.8014,5.9826,13.2988,4.59908,2453.596,38.4860
2024-01-23T15:39:49,2420,42.8014,5.9826,13.2989,4.59907,2453.604,38.4858
2024-01-23T15:42:49,2420,42.8014,5.9826,13.2989,4.59908,2453.627,38.4858
2024-01-23T15:45:50,2420,42.8014,5.9826,13.2990,4.59908,2453.627,38.4858
2024-01-23T15:48:49,2420,42.8014,5.9826,13.2984,4.59908,2453.604,38.4864
2024-01-23T15:51:49,2420,42.8014,5.9826,13.2989,4.59908,2453.627,38.4858
2024-01-23T15:54:49,2420,42.8014,5.9826,13.2988,4.59908,2453.604,38.4859
2024-01-23T15:57:49,2420,42.8014,5.9826,13.2988,4.59908,2453.582,38.4860
2024-01-23T16:00:49,2420,42.8014,5.9826,13.2988,4.59908,2453.635,38.4859
2024-01-23T16:03:49,2420,42.8014,5.9826,13.2986,4.59908,2453.619,38.4862
2024-01-23T16:06:49,2420,42.8014,5.9826,13.2984,4.59908,2453.627,38.4864
2024-01-23T16:09:49,2420,42.8014,5.9826,13.2985,4.59908,2453.604,38.4864
2024-01-23T16:12:49,2420,42.8014,5.9826,13.2991,4.59908,2453.604,38.4858
2024-01-23T16:15:49,2420,42.8014,5.9826,13.2990,4.59908,2453.604,38.4858
2024-01-23T16:18:49,2420,42.8014,5.9826,13.2989,4.59909,2453.627,38.4860
2024-01-23T16:21:49,2420,42.8014,5.9826,13.2985,4.59908,2453.590,38.4864
2024-01-23T16:24:49,2420,42.8014,5.9826,13.2984,4.59908,2453.604,38.4864
2024-01-23T16:27:50,2420,42.8014,5.9826,13.2987,4.59908,2453.612,38.4861
2024-01-23T16:30:49,2420,42.8014,5.9826,13.2984,4.59909,2453.649,38.4864
2024-01-23T16:33:49,2420,42.8014,5.9826,13.2988,4.59909,2453.604,38.4861
2024-01-23T16:36:49,2420,42.8014,5.9826,13.2985,4.59908,2453.604,38.4863
2024-01-23T16:39:49,2420,42.8014,5.9826,13.2983,4.59909,2453.664,38.4865
2024-01-23T16:42:49,2420,42.8014,5.9826,13.2989,4.59908,2453.604,38.4858
2024-01-23T16:45:49,2420,42.8014,5.9826,13.2987,4.59909,2453.627,38.4862
2024-01-23T16:48:49,2420,42.8014,5.9826,13.2989,4.59908,2453.649,38.4858
2024-01-23T16:51:49,2420,42.8014,5.9826,13.2985,4.59908,2453.627,38.4863
2024-01-23T16:54:49,2420,42.8014,5.9826,13.2985,4.59909,2453.649,38.4863
2024-01-23T16:57:49,2420,42.8014,5.9826,13.2988,4.59909,2453.649,38.4861
2024-01-23T17:00:49,2420,42.8014,5.9826,13.2988,4.59908,2453.627,38.4861
2024-01-23T17:03:49,2420,42.8014,5.9826,13.2987,4.59908,2453.627,38.4861
2024-01-23T17:06:49,2420,42.8014,5.9826,13.2986,4.59908,2453.627,38.4862
2024-01-23T17:09:49,2420,42.8014,5.9826,13.2987,4.59908,2453.627,38.4861
2024-01-23T17:12:49,2420,42.8014,5.9826,13.2985,4.59908,2453.627,38.4864
2024-01-23T17:15:49,2420,42.8014,5.9826,13.2985,4.59908,2453.627,38.4864
2024-01-23T17:18:49,2420,42.8014,5.9826,13.2986,4.59908,2453.627,38.4862
2024-01-23T17:21:49,2420,42.8014,5.9826,13.2989,4.59908,2453.627,38.4859
2024-01-23T17:24:49,2420,42.8014,5.9826,13.2986,4.59909,2453.672,38.4862
2024-01-23T17:27:49,2420,42.8014,5.9826,13.2981,4.59908,2453.627,38.4867
2024-01-23T17:30:49,2420,42.8014,5.9826,13.2988,4.59908,2453.627,38.4860
2024-01-23T17:33:49,2420,42.8014,5.9826,13.2986,4.59909,2453.635,38.4862
2024-01-23T17:36:49,2420,42.8014,5.9826,13.2988,4.59908,2453.635,38.4860
2024-01-23T17:39:49,2420,42.8014,5.9826,13.2985,4.59908,2453.627,38.4863
2024-01-23T17:42:49,2420,42.8014,5.9826,13.2987,4.59908,2453.604,38.4861
2024-01-23T17:45:49,2420,42.8014,5.9826,13.2986,4.59908,2453.619,38.4861
2024-01-23T17:48:49,2420,42.8014,5.9826,13.2986,4.59908,2453.604,38.4862
2024-01-23T17:51:49,2420,42.8014,5.9826,13.2984,4.59908,2453.604,38.4864
2024-01-23T17:54:50,2420,42.8014,5.9826,13.2985,4.59909,2453.641,38.4863
2024-01-23T17:57:49,2420,42.8014,5.9826,13.2982,4.59908,2453.612,38.4866
2024-01-23T18:00:49,2420,42.8014,5.9826,13.2985,4.59909,2453.649,38.4864
2024-01-23T18:03:49,2420,42.8014,5.9826,13.2986,4.59908,2453.664,38.4862
2024-01-23T18:06:49,2420,42.8014,5.9826,13.2986,4.59908,2453.604,38.4861
2024-01-23T18:09:49,2420,42.8014,5.9826,13.2986,4.59908,2453.649,38.4862
2024-01-23T18:12:49,2420,42.8014,5.9826,13.2988,4.59908,2453.627,38.4861
2024-01-23T18:15:49,2420,42.8014,5.9826,13.2985,4.59908,2453.590,38.4863
2024-01-23T18:18:49,2420,42.8014,5.9826,13.2987,4.59908,2453.649,38.4861
2024-01-23T18:21:49,2420,42.8014,5.9826,13.2987,4.59908,2453.627,38.4861
2024-01-23T18:24:49,2420,42.8014,5.9826,13.2982,4.59908,2453.627,38.4866
2024-01-23T18:27:49,2420,42.8014,5.9826,13.2989,4.59908,2453.627,38.4858
2024-01-23T18:30:49,2420,42.8014,5.9826,13.2982,4.59908,2453.590,38.4866
2024-01-23T18:33:49,2420,42.8014,5.9826,13.2989,4.59908,2453.627,38.4858
2024-01-23T18:36:49,2420,42.8014,5.9826,13.2987,4.59907,2453.649,38.4860
2024-01-23T18:39:49,2420,42.8014,5.9826,13.2988,4.59908,2453.649,38.4859
2024-01-23T18:42:49,2420,42.8014,5.9826,13.2988,4.59908,2453.627,38.4860
2024-01-23T18:45:49,2420,42.8014,5.9826,13.2989,4.59908,2453.649,38.4858
2024-01-23T18:48:49,2420,42.8014,5.9826,13.2985,4.59908,2453.604,38.4863
2024-01-23T18:51:49,2420,42.8014,5.9826,13.2987,4.59907,2453.627,38.4860
2024-01-23T18:54:49,2420,42.8014,5.9826,13.2986,4.59908,2453.604,38.4861
2024-01-23T18:57:49,2420,42.8014,5.9826,13.2986,4.59908,2453.627,38.4861
2024-01-23T19:00:49,2420,42.8014,5.9826,13.2988,4.59908,2453.627,38.4860
